Regional Weather Roundup
Issued by NWS Upton, NY

Current Version | Previous Version | Graphics & Text | Print | Product List | Glossary Off
Versions: 1 2 3 4 5 6 7 8 9 10 11 12 13 14 15 16 17 18 19 20 21 22 23 24 25 26 27 28

000
ASUS41 KOKX 201008
RWROKX

REGIONAL WEATHER ROUNDUP
NATIONAL WEATHER SERVICE NEW YORK NY
500 AM EST MON FEB 20 2017

NOTE: "FAIR" INDICATES FEW OR NO CLOUDS BELOW 12,000 FEET WITH NO
SIGNIFICANT WEATHER AND/OR OBSTRUCTIONS TO VISIBILITY.

NYZ071-072-176-178-NJZ106-104-201100-
NEW YORK CITY METRO AREA

CITY           SKY/WX    TMP DP  RH WIND       PRES   REMARKS
Central Park   CLEAR     45  31  58 NW5       30.10R
Wall St Helipt NOT AVBL
LaGuardia APRT CLEAR     47  32  56 NW12      30.07R
Kennedy INTL   CLEAR     46  33  60 NW12      30.08R
Breezy Point     N/A     45 N/A N/A NW9G15      N/A
Newark/Liberty PTCLDY    45  31  58 W12G20    30.08R
Teterboro      CLEAR     44  32  62 NW8       30.07R
$$

NYZ177-179-078>081-201100-
LONG ISLAND NEW YORK

CITY           SKY/WX    TMP DP  RH WIND       PRES   REMARKS
Jones Beach      N/A     43 N/A N/A NW7         N/A
Matinecock PT    N/A     45 N/A N/A W10         N/A
Farmingdale    CLEAR     43  32  65 NW3       30.06R
MacArthur/ISP  CLEAR     36  30  79 W3        30.05R
Shirley        CLEAR     35  30  82 NW6       30.06R WCI  30
Westhampton    CLEAR     28  23  81 NW3       30.06R
Southampton    NOT AVBL
Bridgehampton  NOT AVBL
East Hampton     N/A     38  31  74 N3        30.04R
Montauk          N/A     42  34  73 W8        30.04R
$$

NYZ052-065-067-201100-
HUDSON VALLEY

CITY           SKY/WX    TMP DP  RH WIND       PRES   REMARKS
White Plains   PTCLDY    41  30  65 W6        30.05R
Newburgh       CLEAR     37  32  81 NW12      30.07R WCI  30
Montgomery     PTCLDY    40  30  67 W10       30.05R WCI  33
Poughkeepsie   PTCLDY    30  27  88 CALM      30.06R
Albany         PTCLDY    36  28  73 N6        30.09R WCI  31
$$

NJZ001-105-106-008-010-013-015-019>022-104-201100-
NEW JERSEY

CITY           SKY/WX    TMP DP  RH WIND       PRES   REMARKS
Newark/Liberty PTCLDY    45  31  58 W12G20    30.08R
Teterboro      CLEAR     44  32  62 NW8       30.07R
Caldwell       CLEAR     44  30  57 NW7       30.09R
Somerville     CLEAR     32  28  85 CALM      30.09R
Linden         NOT AVBL
Sussex         CLEAR     41  30  65 NW7       30.09R
Andover          N/A     35  29  78 CALM      30.10R
Trenton        CLEAR     46  33  60 NW7       30.10R
Millville      CLEAR     33  31  92 W6        30.10R WCI  28
Atlantic City  CLEAR     36  29  75 CALM      30.09R
Wrightstown    CLEAR     45  34  65 N10       30.06R
Toms River     CLEAR     29  26  89 CALM      30.09R
Belmar         CLEAR     45  32  60 NW14      30.08R
$$

PAZ047>061-062-071-201100-
EASTERN PENNSYLVANIA

CITY           SKY/WX    TMP DP  RH WIND       PRES   REMARKS
Philadelphia   CLEAR     47  32  56 N9        30.11R
Allentown      CLEAR     38  30  73 N6        30.11R WCI  33
Scranton       CLEAR     39  30  70 W6        30.12R WCI  35
$$

CTZ002-004>006-009-010-012-RIZ004-006-007-MAZ004-011-015-201100-
SOUTHERN NEW ENGLAND
 IN CT

CITY           SKY/WX    TMP DP  RH WIND       PRES   REMARKS
Bradley INTL   PTCLDY    35  29  78 W7        30.03R WCI  29
Hartford       PTCLDY    40  31  70 CALM      30.04R
Danbury        CLEAR     27  24  89 CALM      30.07R
Wtrbury/Oxford PTCLDY    39  28  65 NW3       30.05R
Bridgeport     CLEAR     44  31  60 NW7       30.06R
Meriden        PTCLDY    29  25  85 CALM      30.05R
New Haven      PTCLDY    42  32  67 NW6       30.05R
Chester          N/A     41  32  70 CALM      30.03R
Groton         PTCLDY    43  31  62 NW9       30.02R
Wilimantic     PTCLDY    31  27  85 CALM      30.04R

 IN RI

CITY           SKY/WX    TMP DP  RH WIND       PRES   REMARKS
Providence     PTCLDY    43  28  55 N9        30.01R
Block Island   CLEAR     42  33  70 NW8       30.02R
Westerly       PTCLDY    42  28  57 NW5       30.03R
 IN MA

CITY           SKY/WX    TMP DP  RH WIND       PRES   REMARKS
Boston         PTCLDY    41  28  60 N9        30.01R
Worcester      CLEAR     37  26  64 NW13      29.99R WCI  29
Westfield      CLEAR     28  27  96 S3        30.02R
Provincetown   PTCLDY    42  31  64 N14       30.00R
Nantucket      CLEAR     40  31  70 N10       29.97R WCI  33
$$

ANZ330-335-338-340-345-350-353-355-201100-
COASTAL MARINE OBSERVATIONS


STATION/POSITION TIME  SKY/WX   TEMP    WIND        PRES    VSBY  WAVE
                                AIR SEA DIR/SP/G                  HT/PER
                 (UTC)          (F)     (DEG/KT/KT) (MB)    (MI)  (FT/S)
NY HARB ENTRANCE 0850            46 42  310/ 14/ 16 1016.7          2/ 7
20 S FIRE ISLAND 0950            44 40  340/ 10/ 10 1017.3          2/ 7
GREAT SOUTH BAY  NOT AVBL
23 SSW MONTAUK P 0850            45 43              1015.9          3/ 7
15 E BARNEGAT LI 0930               42                N/A           2/ 6
HUDSON CANYON    0850               51              1016.3          2/ 6
KINGS POINT      0942            43 38              1018.0
EXECUTION ROCKS  NOT AVBL
CENTRAL LI SOUND 0930            42     290/ 10/ 12   N/A           0
EASTERN LI SOUND NOT AVBL
ROBBINS REEF     0942            47     320/  6/  9 1018.7
$$


>>>>>>>>>>>>>>>>>>>>>>>>>>>> KEY <<<<<<<<<<<<<<<<<<<<<<<<<<<
>                                                          <
>     SKY/WX - Sky Condition/Present Weather               <
>     TMP    - Temperature in Fahrenheit                   <
>     DP     - Dew Point in Fahrenheit                     <
>     RH     - Relative Humidity in Percent                <
>     WIND   - Direction (from) and Speed in MPH           <
>     PRES   - Mean Sea Level Pressure (inches of Hg)      <
>     WCI    - Wind Chill Index                            <
>     VSB    - VISIBILITY IN MILES                         <
>     HX     - HEAT INDEX                                  <
>     TC     - TEMPERATURE IN CELSIUS                      <
>     VRB    - VARIABLE WIND DIRECTION                     <
>                                                          <
>>>>>>>>>>>>>>>>>>>>>>>>>>>> KEY <<<<<<<<<<<<<<<<<<<<<<<<<<<




USA.gov is the U.S. government's official web portal to all federal, state and local government web resources and services.